This is the latest recevied weather packets stored in our database for station/object W0AKO. If no packets are shown the sender has not sent any weather packets the latest 10 day(s).
| Time | Temp. | Humidity | Pressure | Rain* | Wind** | Luminosity | Snow |
|---|---|---|---|---|---|---|---|
| 1777373421 | 9.44° C | 10% | 1018.1 hPa | 0 mm | - | 0 W/m² | - |
| 1777373116 | 9.44° C | 10% | 1017.9 hPa | 0 mm | - | 0 W/m² | - |
| 1777372811 | 9.44° C | 10% | 1017.8 hPa | 0 mm | - | 0 W/m² | - |
| 1777372506 | 9.44° C | 10% | 1017.8 hPa | 0 mm | - | 0 W/m² | - |
| 1777372204 | 10.56° C | 10% | 1017.9 hPa | 0 mm | - | 0 W/m² | - |
| 1777371899 | 11.11° C | 10% | 1017.9 hPa | 0 mm | - | 0 W/m² | - |
| 1777371596 | 11.11° C | 10% | 1017.5 hPa | 0 mm | - | 0 W/m² | - |
| 1777371292 | 10.56° C | 10% | 1017.6 hPa | 0 mm | - | 0 W/m² | - |
| 1777370989 | 11.11° C | 10% | 1017.6 hPa | 0 mm | - | 0 W/m² | - |
| 1777370684 | 11.67° C | 10% | 1017.3 hPa | 0 mm | - | 0 W/m² | - |
| 1777370381 | 11.67° C | 10% | 1017.3 hPa | 0 mm | - | 0 W/m² | - |
| 1777370076 | 11.67° C | 10% | 1017.3 hPa | 0 mm | - | 0 W/m² | - |
| 1777369774 | 12.22° C | 10% | 1017.2 hPa | 0 mm | - | 0 W/m² | - |
| 1777369473 | 12.22° C | 10% | 1017.3 hPa | 0 mm | - | 0 W/m² | - |
| 1777369169 | 12.22° C | 10% | 1017.2 hPa | 0 mm | - | 0 W/m² | - |
| 1777368868 | 11.67° C | 10% | 1017.3 hPa | 0 mm | - | 0 W/m² | - |
| 1777368567 | 11.67° C | 10% | 1017.3 hPa | 0 mm | - | 0 W/m² | - |
| 1777368264 | 11.67° C | 10% | 1017.3 hPa | 0 mm | - | 0 W/m² | - |
| 1777367961 | 11.67° C | 10% | 1017.5 hPa | 0 mm | - | 0 W/m² | - |
| 1777367658 | 11.67° C | 10% | 1017.2 hPa | 0 mm | - | 0 W/m² | - |
| 1777367354 | 11.67° C | 10% | 1017.1 hPa | 0 mm | - | 0 W/m² | - |
| 1777367053 | 11.11° C | 10% | 1017 hPa | 0 mm | - | 0 W/m² | - |
| 1777366748 | 11.67° C | 10% | 1017.2 hPa | 0 mm | - | 0 W/m² | - |
| 1777366444 | 12.22° C | 10% | 1017.3 hPa | 0 mm | - | 0 W/m² | - |
| 1777366139 | 12.22° C | 10% | 1017.2 hPa | 0 mm | - | 0 W/m² | - |
* Rain latest hour (hover to see other rain measurements)
** Current wind speed in m/s (hover to see current wind gust speed)